Date,TemperatureHighF,TemperatureAvgF,TemperatureLowF,DewpointHighF,DewpointAvgF,DewpointLowF,HumidityHigh,HumidityAvg,HumidityLow,PressureMaxIn,PressureMinIn,WindSpeedMaxMPH,WindSpeedAvgMPH,GustSpeedMaxMPH,PrecipitationSumIn
2013-3-1,58.3,51.7,46.8,52.5,49.7,46.0,98,93,81,30.48,30.32,6,2,13,0.00
2013-3-2,54.0,49.3,45.1,49.9,47.4,42.9,98,93,79,30.32,30.21,8,2,17,0.01
2013-3-3,52.2,45.0,38.0,42.9,38.6,33.9,92,79,54,30.28,30.15,13,4,25,0.00
2013-3-4,57.2,44.3,35.9,46.5,38.3,32.6,94,80,64,30.15,29.87,8,2,20,0.00
2013-3-5,44.8,43.1,40.8,43.1,41.5,38.1,97,94,88,29.87,29.59,9,2,18,1.10
2013-3-6,48.2,43.5,41.2,45.2,41.8,39.1,97,94,85,29.96,29.54,11,3,25,0.57
2013-3-7,57.3,43.7,35.3,42.7,38.6,34.5,97,84,49,30.00,29.96,10,2,17,0.01
2013-3-8,52.3,42.1,31.2,43.7,38.6,30.4,98,88,70,30.21,29.99,11,3,22,0.01
2013-3-9,58.2,46.3,37.5,46.3,41.7,35.9,96,85,62,30.49,30.21,10,3,19,0.00
2013-3-10,61.1,46.2,34.6,49.2,40.5,33.6,97,83,47,30.48,30.40,8,2,17,0.00
2013-3-11,60.4,50.1,46.0,52.0,47.6,45.2,98,91,73,30.42,30.24,10,3,18,0.01
2013-3-12,59.4,48.9,45.1,50.7,46.9,44.6,98,93,72,30.24,30.19,8,1,14,0.00
2013-3-13,59.9,49.3,45.8,51.4,46.9,44.9,97,92,73,30.23,30.12,9,2,15,0.00
2013-3-14,60.6,50.2,44.5,49.2,46.3,43.6,98,87,65,30.23,30.08,11,3,21,0.00
2013-3-15,59.4,51.7,47.0,52.2,48.9,45.9,97,90,77,30.23,30.20,8,2,12,0.00
2013-3-16,49.9,47.5,43.7,47.7,46.1,40.6,97,95,88,30.24,30.13,8,3,20,0.43
2013-3-17,51.2,44.1,38.4,42.1,38.0,34.3,97,80,59,30.34,30.24,9,2,18,0.01
2013-3-18,57.7,45.2,33.1,44.6,38.7,31.8,97,79,48,30.28,30.05,10,2,22,0.01
2013-3-19,59.7,50.1,44.4,50.2,44.4,39.3,95,82,56,30.05,29.69,11,3,25,0.71
2013-3-20,55.1,48.9,40.3,50.7,44.4,35.3,95,85,71,30.25,29.66,17,7,39,0.40
2013-3-21,49.0,42.0,37.6,42.9,38.1,34.6,96,86,64,30.37,30.25,9,3,18,0.09
2013-3-22,48.3,41.7,35.6,40.5,36.3,32.1,96,82,56,30.38,30.34,9,2,21,0.05
2013-3-23,52.4,41.3,30.7,38.3,34.8,29.4,96,79,54,30.37,30.21,10,2,19,0.00
2013-3-24,52.6,44.2,35.7,40.5,37.5,33.1,94,78,52,30.23,30.06,8,2,17,0.00
2013-3-25,54.2,44.5,37.8,45.2,41.1,36.5,96,88,70,30.06,29.96,6,1,11,0.00
2013-3-26,58.9,49.4,44.6,47.1,44.7,43.0,95,85,58,30.00,29.92,7,2,12,0.00
2013-3-27,59.4,50.9,46.5,52.0,47.8,44.6,95,89,69,29.98,29.89,9,1,22,0.06
2013-3-28,59.8,51.6,47.4,52.0,48.6,46.3,97,90,71,30.12,29.97,7,1,12,0.00
2013-3-29,69.7,55.4,48.3,55.8,50.6,46.6,97,85,57,30.15,30.08,9,2,17,0.02
2013-3-30,77.0,56.8,45.0,56.3,49.8,44.1,98,80,47,30.10,29.94,10,2,15,0.00
2013-3-31,61.1,54.3,50.8,54.3,51.0,48.9,95,89,76,30.04,29.96,6,1,11,0.00